Change the Weather History Date:

Tuesday, April 8, 2014

  Actual Average Record
Temperature  
Mean Temperature 43 °F 36 °F  
Max Temperature 60 °F 49 °F 66 °F (1977)
Min Temperature 25 °F 23 °F 0 °F (1957)
Degree Days  
Heating Degree Days 22 29  
Month to date heating degree days 248 241  
Since 1 July heating degree days 7289 7476  
Cooling Degree Days 0 0  
Month to date cooling degree days 0 0  
Year to date cooling degree days 0 0  
Moisture  
Dew Point 21 °F    
Average Humidity 45    
Maximum Humidity 69    
Minimum Humidity 21    
Precipitation  
Precipitation 0.00 in 0.03 in 0.21 in (2004)
Month to date precipitation T 0.21  
Year to date precipitation 1.73 1.40  
Sea Level Pressure  
Sea Level Pressure 30.09 in    
Wind  
Wind Speed 15 mph (West)    
Max Wind Speed 32 mph    
Max Gust Speed 39 mph    
Visibility 10 miles    
Events      
T = Trace of Precipitation, MM = Missing Value Source: NWS Daily Summary

Daily Weather History Graph

Daily Weather History Graph

Search for Another Location

Airport or City:

Trip Planner

Search our weather history database for the weather conditions in past years. The results will help you decide how hot, cold, wet, or windy it might be!

Date:

Astronomy

Apr. 08, 2014 Rise Set
Actual Time 6:34 AM MDT 7:35 PM MDT
Civil Twilight 6:06 AM MDT 8:03 PM MDT
Nautical Twilight 5:32 AM MDT 8:37 PM MDT
Astronomical Twilight 4:57 AM MDT 9:12 PM MDT
Moon 1:27 PM MDT (4/8) 2:52 AM MDT (4/8)
Length of Visible Light 13h 57m
Length of Day
13h 01m
Waxing Gibbous, 63% of the Moon is Illuminated
Apr 8
Waxing Gibbous
Apr 15
Full
Apr 22
Last Quarter
Apr 29
New
May 6
First Quarter

Hourly Weather History & Observations

Time (MDT) Temp. Windchill Dew Point Humidity Pressure Visibility Wind Dir Wind Speed Gust Speed Precip Events Conditions
12:53 AM 33.1 °F 26.1 °F 19.0 °F 56% 30.18 in 10.0 mi WSW 8.1 mph - N/A   Overcast
1:53 AM 32.0 °F 25.6 °F 19.9 °F 61% 30.18 in 10.0 mi West 6.9 mph - N/A   Overcast
2:53 AM 35.1 °F 27.4 °F 21.0 °F 57% 30.14 in 10.0 mi West 10.4 mph - N/A   Mostly Cloudy
3:53 AM 32.0 °F 23.0 °F 19.9 °F 61% 30.14 in 10.0 mi West 11.5 mph - N/A   Partly Cloudy
4:53 AM 28.9 °F 19.2 °F 19.9 °F 69% 30.19 in 10.0 mi WSW 11.5 mph - N/A   Clear
5:53 AM 28.0 °F 18.1 °F 19.9 °F 72% 30.19 in 10.0 mi West 11.5 mph - N/A   Clear
6:53 AM 28.0 °F 18.6 °F 19.9 °F 72% 30.20 in 10.0 mi WSW 10.4 mph - N/A   Clear
7:53 AM 37.0 °F 29.3 °F 24.1 °F 59% 30.17 in 10.0 mi WSW 11.5 mph - N/A   Clear
8:53 AM 44.1 °F 37.7 °F 23.0 °F 43% 30.15 in 10.0 mi WSW 12.7 mph - N/A   Clear
9:53 AM 48.0 °F - 23.0 °F 37% 30.15 in 10.0 mi WNW 9.2 mph - N/A   Clear
10:53 AM 53.1 °F - 19.9 °F 27% 30.10 in 10.0 mi NW 19.6 mph 27.6 mph N/A   Clear
11:53 AM 55.0 °F - 21.0 °F 27% 30.11 in 10.0 mi NW 17.3 mph 25.3 mph N/A   Clear
12:53 PM 57.9 °F - 21.0 °F 24% 30.06 in 10.0 mi WNW 23.0 mph 29.9 mph N/A   Clear
1:53 PM 59.0 °F - 19.9 °F 22% 30.05 in 10.0 mi West 27.6 mph 38.0 mph N/A   Clear
2:53 PM 59.0 °F - 21.0 °F 23% 30.03 in 10.0 mi WNW 26.5 mph 33.4 mph N/A   Clear
3:53 PM 60.1 °F - 21.0 °F 22% 30.02 in 10.0 mi West 26.5 mph 34.5 mph N/A   Clear
4:53 PM 59.0 °F - 19.9 °F 22% 30.04 in 10.0 mi West 26.5 mph 39.1 mph N/A   Clear
5:53 PM 57.0 °F - 17.1 °F 21% 30.05 in 10.0 mi West 23.0 mph 35.7 mph N/A   Clear
6:53 PM 57.0 °F - 18.0 °F 22% 30.04 in 10.0 mi West 23.0 mph 29.9 mph N/A   Clear
7:53 PM 46.9 °F - 21.0 °F 36% 30.06 in 10.0 mi SW 5.8 mph - N/A   Clear
8:53 PM 46.0 °F 39.9 °F 24.1 °F 42% 30.03 in 10.0 mi WSW 13.8 mph - N/A   Clear
9:53 PM 43.0 °F 36.4 °F 23.0 °F 45% 30.02 in 10.0 mi West 12.7 mph - N/A   Clear
10:53 PM 43.0 °F 38.8 °F 21.9 °F 43% 29.99 in 10.0 mi West 6.9 mph - N/A   Clear
11:53 PM 41.0 °F 36.4 °F 21.9 °F 47% 29.98 in 10.0 mi SW 6.9 mph - N/A   Clear